Year,Month,Day,Hour,Minute,Value (Times are PST for temperature in C)
2013,09,25,00,00,9.70
2013,09,25,00,01,9.70
2013,09,25,00,02,9.70
2013,09,25,00,03,9.70
2013,09,25,00,04,9.60
2013,09,25,00,05,9.70
2013,09,25,00,06,9.70
2013,09,25,00,07,9.60
2013,09,25,00,08,9.60
2013,09,25,00,09,9.60
2013,09,25,00,10,9.60
2013,09,25,00,11,9.60
2013,09,25,00,12,9.60
2013,09,25,00,13,9.60
2013,09,25,00,14,9.60
2013,09,25,00,15,9.60
2013,09,25,00,16,9.60
2013,09,25,00,17,9.60
2013,09,25,00,18,9.60
2013,09,25,00,19,9.60
2013,09,25,00,20,9.60
2013,09,25,00,21,9.60
2013,09,25,00,22,9.60
2013,09,25,00,23,9.60
2013,09,25,00,24,9.60
2013,09,25,00,25,9.60
2013,09,25,00,26,9.60
2013,09,25,00,27,9.60
2013,09,25,00,28,9.60
2013,09,25,00,29,9.60
2013,09,25,00,30,9.60
2013,09,25,00,31,9.60
2013,09,25,00,32,9.70
2013,09,25,00,33,9.70
2013,09,25,00,34,9.70
2013,09,25,00,35,9.70
2013,09,25,00,36,9.70
2013,09,25,00,37,9.70
2013,09,25,00,38,9.70
2013,09,25,00,39,9.70
2013,09,25,00,40,9.70
2013,09,25,00,41,9.70
2013,09,25,00,42,9.70
2013,09,25,00,43,9.70
2013,09,25,00,44,9.70
2013,09,25,00,45,9.70
2013,09,25,00,46,9.70
2013,09,25,00,47,9.70
2013,09,25,00,48,9.70
2013,09,25,00,49,9.70
2013,09,25,00,50,9.70
2013,09,25,00,51,9.70
2013,09,25,00,52,9.70
2013,09,25,00,53,9.70
2013,09,25,00,54,9.70
2013,09,25,00,55,9.70
2013,09,25,00,56,9.60
2013,09,25,00,57,9.60
2013,09,25,00,58,9.60
2013,09,25,00,59,9.60
2013,09,25,01,00,9.60
2013,09,25,01,01,9.60
2013,09,25,01,02,9.60
2013,09,25,01,03,9.60
2013,09,25,01,04,9.60
2013,09,25,01,05,9.60
2013,09,25,01,06,9.60
2013,09,25,01,07,9.60
2013,09,25,01,08,9.60
2013,09,25,01,09,9.60
2013,09,25,01,10,9.60
2013,09,25,01,11,9.50
2013,09,25,01,12,9.50
2013,09,25,01,13,9.50
2013,09,25,01,14,9.50
2013,09,25,01,15,9.50
2013,09,25,01,16,9.50
2013,09,25,01,17,9.50
2013,09,25,01,18,9.50
2013,09,25,01,19,9.50
2013,09,25,01,20,9.50
2013,09,25,01,21,9.50
2013,09,25,01,22,9.50
2013,09,25,01,23,9.50
2013,09,25,01,24,9.50
2013,09,25,01,25,9.50
2013,09,25,01,26,9.50
2013,09,25,01,27,9.50
2013,09,25,01,28,9.50
2013,09,25,01,29,9.50
2013,09,25,01,30,9.50
2013,09,25,01,31,9.40
2013,09,25,01,32,9.50
2013,09,25,01,33,9.40
2013,09,25,01,34,9.40
2013,09,25,01,35,9.40
2013,09,25,01,36,9.40
2013,09,25,01,37,9.40
2013,09,25,01,38,9.40
2013,09,25,01,39,9.40
2013,09,25,01,40,9.40
2013,09,25,01,41,9.40
2013,09,25,01,42,9.50
2013,09,25,01,43,9.50
2013,09,25,01,44,9.40
2013,09,25,01,45,9.50
2013,09,25,01,46,9.50
2013,09,25,01,47,9.50
2013,09,25,01,48,9.50
2013,09,25,01,49,9.50
2013,09,25,01,50,9.50
2013,09,25,01,51,9.50
2013,09,25,01,52,9.50
2013,09,25,01,53,9.50
2013,09,25,01,54,9.50
2013,09,25,01,55,9.50
2013,09,25,01,56,9.50
2013,09,25,01,57,9.50
2013,09,25,01,58,9.50
2013,09,25,01,59,9.50
2013,09,25,02,00,9.50
2013,09,25,02,01,9.50
2013,09,25,02,02,9.50
2013,09,25,02,03,9.50
2013,09,25,02,04,9.50
2013,09,25,02,05,9.50
2013,09,25,02,06,9.50
2013,09,25,02,07,9.50
2013,09,25,02,08,9.50
2013,09,25,02,09,9.50
2013,09,25,02,10,9.40
2013,09,25,02,11,9.40
2013,09,25,02,12,9.40
2013,09,25,02,13,9.40
2013,09,25,02,14,9.40
2013,09,25,02,15,9.40
2013,09,25,02,16,9.40
2013,09,25,02,17,9.40
2013,09,25,02,18,9.40
2013,09,25,02,19,9.40
2013,09,25,02,20,9.40
2013,09,25,02,21,9.40
2013,09,25,02,22,9.40
2013,09,25,02,23,9.40
2013,09,25,02,24,9.40
2013,09,25,02,25,9.40
2013,09,25,02,26,9.40
2013,09,25,02,27,9.40
2013,09,25,02,28,9.40
2013,09,25,02,29,9.40
2013,09,25,02,30,9.40
2013,09,25,02,31,9.40
2013,09,25,02,32,9.40
2013,09,25,02,33,9.40
2013,09,25,02,34,9.40
2013,09,25,02,35,9.40
2013,09,25,02,36,9.40
2013,09,25,02,37,9.40
2013,09,25,02,38,9.40
2013,09,25,02,39,9.40
2013,09,25,02,40,9.40
2013,09,25,02,41,9.40
2013,09,25,02,42,9.40
2013,09,25,02,43,9.30
2013,09,25,02,44,9.30
2013,09,25,02,45,9.30
2013,09,25,02,46,9.30
2013,09,25,02,47,9.30
2013,09,25,02,48,9.30
2013,09,25,02,49,9.30
2013,09,25,02,50,9.30
2013,09,25,02,51,9.30
2013,09,25,02,52,9.30
2013,09,25,02,53,9.30
2013,09,25,02,54,9.30
2013,09,25,02,55,9.30
2013,09,25,02,56,9.30
2013,09,25,02,57,9.30
2013,09,25,02,58,9.30
2013,09,25,02,59,9.30
2013,09,25,03,00,9.20
2013,09,25,03,01,9.20
2013,09,25,03,02,9.20
2013,09,25,03,03,9.20
2013,09,25,03,04,9.20
2013,09,25,03,05,9.20
2013,09,25,03,06,9.20
2013,09,25,03,07,9.20
2013,09,25,03,08,9.10
2013,09,25,03,09,9.10
2013,09,25,03,10,9.10
2013,09,25,03,11,9.10
2013,09,25,03,12,9.00
2013,09,25,03,13,9.00
2013,09,25,03,14,9.00
2013,09,25,03,15,9.00
2013,09,25,03,16,9.00
2013,09,25,03,17,9.00
2013,09,25,03,18,9.00
2013,09,25,03,19,9.00
2013,09,25,03,20,8.90
2013,09,25,03,21,8.90
2013,09,25,03,22,8.90
2013,09,25,03,23,8.90
2013,09,25,03,24,8.90
2013,09,25,03,25,8.90
2013,09,25,03,26,8.90
2013,09,25,03,27,8.90
2013,09,25,03,28,8.90
2013,09,25,03,29,8.90
2013,09,25,03,30,8.90
2013,09,25,03,31,8.90
2013,09,25,03,32,8.90
2013,09,25,03,33,8.90
2013,09,25,03,34,8.80
2013,09,25,03,35,8.80
2013,09,25,03,36,8.80
2013,09,25,03,37,8.80
2013,09,25,03,38,8.80
2013,09,25,03,39,8.80
2013,09,25,03,40,8.80
2013,09,25,03,41,8.80
2013,09,25,03,42,8.80
2013,09,25,03,43,8.80
2013,09,25,03,44,8.80
2013,09,25,03,45,8.80
2013,09,25,03,46,8.80
2013,09,25,03,47,8.80
2013,09,25,03,48,8.70
2013,09,25,03,49,8.70
2013,09,25,03,50,8.70
2013,09,25,03,51,8.70
2013,09,25,03,52,8.70
2013,09,25,03,53,8.70
2013,09,25,03,54,8.60
2013,09,25,03,55,8.60
2013,09,25,03,56,8.60
2013,09,25,03,57,8.50
2013,09,25,03,58,8.50
2013,09,25,03,59,8.50
2013,09,25,04,00,8.40
2013,09,25,04,01,8.40
2013,09,25,04,02,8.40
2013,09,25,04,03,8.40
2013,09,25,04,04,8.30
2013,09,25,04,05,8.30
2013,09,25,04,06,8.30
2013,09,25,04,07,8.30
2013,09,25,04,08,8.30
2013,09,25,04,09,8.20
2013,09,25,04,10,8.20
2013,09,25,04,11,8.20
2013,09,25,04,12,8.20
2013,09,25,04,13,8.20
2013,09,25,04,14,8.20
2013,09,25,04,15,8.20
2013,09,25,04,16,8.20
2013,09,25,04,17,8.20
2013,09,25,04,18,8.20
2013,09,25,04,19,8.10
2013,09,25,04,20,8.10
2013,09,25,04,21,8.10
2013,09,25,04,22,8.10
2013,09,25,04,23,8.00
2013,09,25,04,24,8.00
2013,09,25,04,25,8.00
2013,09,25,04,26,8.00
2013,09,25,04,27,7.90
2013,09,25,04,28,7.90
2013,09,25,04,29,7.90
2013,09,25,04,30,7.90
2013,09,25,04,31,7.90
2013,09,25,04,32,7.90
2013,09,25,04,33,7.90
2013,09,25,04,34,7.90
2013,09,25,04,35,7.80
2013,09,25,04,36,7.80
2013,09,25,04,37,7.80
2013,09,25,04,38,7.80
2013,09,25,04,39,7.80
2013,09,25,04,40,7.80
2013,09,25,04,41,7.80
2013,09,25,04,42,7.80
2013,09,25,04,43,7.80
2013,09,25,04,44,7.80
2013,09,25,04,45,7.80
2013,09,25,04,46,7.80
2013,09,25,04,47,7.80
2013,09,25,04,48,7.70
2013,09,25,04,49,7.60
2013,09,25,04,50,7.60
2013,09,25,04,51,7.60
2013,09,25,04,52,7.60
2013,09,25,04,53,7.60
2013,09,25,04,54,7.50
2013,09,25,04,55,7.50
2013,09,25,04,56,7.50
2013,09,25,04,57,7.50
2013,09,25,04,58,7.50
2013,09,25,04,59,7.50
2013,09,25,05,00,7.50
2013,09,25,05,01,7.50
2013,09,25,05,02,7.40
2013,09,25,05,03,7.40
2013,09,25,05,04,7.40
2013,09,25,05,05,7.40
2013,09,25,05,06,7.40
2013,09,25,05,07,7.40
2013,09,25,05,08,7.40
2013,09,25,05,09,7.30
2013,09,25,05,10,7.30
2013,09,25,05,11,7.30
2013,09,25,05,12,7.30
2013,09,25,05,13,7.30
2013,09,25,05,14,7.30
2013,09,25,05,15,7.30
2013,09,25,05,16,7.20
2013,09,25,05,17,7.20
2013,09,25,05,18,7.20
2013,09,25,05,19,7.20
2013,09,25,05,20,7.10
2013,09,25,05,21,7.10
2013,09,25,05,22,7.10
2013,09,25,05,23,7.10
2013,09,25,05,24,7.00
2013,09,25,05,25,7.00
2013,09,25,05,26,7.00
2013,09,25,05,27,6.90
2013,09,25,05,28,6.90
2013,09,25,05,29,6.90
2013,09,25,05,30,6.90
2013,09,25,05,31,6.90
2013,09,25,05,32,6.90
2013,09,25,05,33,6.90
2013,09,25,05,34,6.90
2013,09,25,05,35,6.90
2013,09,25,05,36,6.90
2013,09,25,05,37,6.90
2013,09,25,05,38,6.90
2013,09,25,05,39,6.90
2013,09,25,05,40,6.80
2013,09,25,05,41,6.80
2013,09,25,05,42,6.80
2013,09,25,05,43,6.80
2013,09,25,05,44,6.80
2013,09,25,05,45,6.80
2013,09,25,05,46,6.80
2013,09,25,05,47,6.80
2013,09,25,05,48,6.80
2013,09,25,05,49,6.80
2013,09,25,05,50,6.80
2013,09,25,05,51,6.80
2013,09,25,05,52,6.80
2013,09,25,05,53,6.80
2013,09,25,05,54,6.80
2013,09,25,05,55,6.80
2013,09,25,05,56,6.80
2013,09,25,05,57,6.80
2013,09,25,05,58,6.80
2013,09,25,05,59,6.80
2013,09,25,06,00,6.80
2013,09,25,06,01,6.80
2013,09,25,06,02,6.80
2013,09,25,06,03,6.80
2013,09,25,06,04,6.80
2013,09,25,06,05,6.80
2013,09,25,06,06,6.80
2013,09,25,06,07,6.80
2013,09,25,06,08,6.80
2013,09,25,06,09,6.80
2013,09,25,06,10,6.80
2013,09,25,06,11,6.80
2013,09,25,06,12,6.80
2013,09,25,06,13,6.80
2013,09,25,06,14,6.80
2013,09,25,06,15,6.80
2013,09,25,06,16,6.80
2013,09,25,06,17,6.80
2013,09,25,06,18,6.80
2013,09,25,06,19,6.80
2013,09,25,06,20,6.80
2013,09,25,06,21,6.80
2013,09,25,06,22,6.80
2013,09,25,06,23,6.70
2013,09,25,06,24,6.70
2013,09,25,06,25,6.70
2013,09,25,06,26,6.70
2013,09,25,06,27,6.70
2013,09,25,06,28,6.70
2013,09,25,06,29,6.70
2013,09,25,06,30,6.70
2013,09,25,06,31,6.60
2013,09,25,06,32,6.60
2013,09,25,06,33,6.60
2013,09,25,06,34,6.60
2013,09,25,06,35,6.60
2013,09,25,06,36,6.60
2013,09,25,06,37,6.50
2013,09,25,06,38,6.50
2013,09,25,06,39,6.50
2013,09,25,06,40,6.50
2013,09,25,06,41,6.50
2013,09,25,06,42,6.40
2013,09,25,06,43,6.40
2013,09,25,06,44,6.40
2013,09,25,06,45,6.40
2013,09,25,06,46,6.40
2013,09,25,06,47,6.40
2013,09,25,06,48,6.40
2013,09,25,06,49,6.40
2013,09,25,06,50,6.50
2013,09,25,06,51,6.50
2013,09,25,06,52,6.50
2013,09,25,06,53,6.50
2013,09,25,06,54,6.50
2013,09,25,06,55,6.50
2013,09,25,06,56,6.60
2013,09,25,06,57,6.60
2013,09,25,06,58,6.60
2013,09,25,06,59,6.60
2013,09,25,07,00,6.60
2013,09,25,07,01,6.60
2013,09,25,07,02,6.70
2013,09,25,07,03,6.70
2013,09,25,07,04,6.70
2013,09,25,07,05,6.70
2013,09,25,07,06,6.70
2013,09,25,07,07,6.70
2013,09,25,07,08,6.70
2013,09,25,07,09,6.70
2013,09,25,07,10,6.70
2013,09,25,07,11,6.70
2013,09,25,07,12,6.70
2013,09,25,07,13,6.70
2013,09,25,07,14,6.70
2013,09,25,07,15,6.70
2013,09,25,07,16,6.70
2013,09,25,07,17,6.70
2013,09,25,07,18,6.60
2013,09,25,07,19,6.60
2013,09,25,07,20,6.60
2013,09,25,07,21,6.60
2013,09,25,07,22,6.60
2013,09,25,07,23,6.60
2013,09,25,07,24,6.60
2013,09,25,07,25,6.60
2013,09,25,07,26,6.60
2013,09,25,07,27,6.60
2013,09,25,07,28,6.60
2013,09,25,07,29,6.60
2013,09,25,07,30,6.60
2013,09,25,07,31,6.60
2013,09,25,07,32,6.60
2013,09,25,07,33,6.60
2013,09,25,07,34,6.60
2013,09,25,07,35,6.50
2013,09,25,07,36,6.50
2013,09,25,07,37,6.50
2013,09,25,07,38,6.50
2013,09,25,07,39,6.50
2013,09,25,07,40,6.50
2013,09,25,07,41,6.60
2013,09,25,07,42,6.60
2013,09,25,07,43,6.50
2013,09,25,07,44,6.60
2013,09,25,07,45,6.60
2013,09,25,07,46,6.60
2013,09,25,07,47,6.50
2013,09,25,07,48,6.50
2013,09,25,07,49,6.40
2013,09,25,07,50,6.40
2013,09,25,07,51,6.40
2013,09,25,07,52,6.30
2013,09,25,07,53,6.30
2013,09,25,07,54,6.30
2013,09,25,07,55,6.30
2013,09,25,07,56,6.30
2013,09,25,07,57,6.30
2013,09,25,07,58,6.30
2013,09,25,07,59,6.30
2013,09,25,08,00,6.30
2013,09,25,08,01,6.30
2013,09,25,08,02,6.30
2013,09,25,08,03,6.40
2013,09,25,08,04,6.40
2013,09,25,08,05,6.40
2013,09,25,08,06,6.40
2013,09,25,08,07,6.40
2013,09,25,08,08,6.40
2013,09,25,08,09,6.40
2013,09,25,08,10,6.50
2013,09,25,08,11,6.50
2013,09,25,08,12,6.50
2013,09,25,08,13,6.50
2013,09,25,08,14,6.60
2013,09,25,08,15,6.60
2013,09,25,08,16,6.60
2013,09,25,08,17,6.70
2013,09,25,08,18,6.70
2013,09,25,08,19,6.70
2013,09,25,08,20,6.70
2013,09,25,08,21,6.70
2013,09,25,08,22,6.70
2013,09,25,08,23,6.80
2013,09,25,08,24,6.80
2013,09,25,08,25,6.80
2013,09,25,08,26,6.80
2013,09,25,08,27,6.80
2013,09,25,08,28,6.80
2013,09,25,08,29,6.80
2013,09,25,08,30,6.80
2013,09,25,08,31,6.80
2013,09,25,08,32,6.80
2013,09,25,08,33,6.90
2013,09,25,08,34,6.90
2013,09,25,08,35,6.90
2013,09,25,08,36,6.90
2013,09,25,08,37,6.90
2013,09,25,08,38,6.90
2013,09,25,08,39,7.00
2013,09,25,08,40,7.00
2013,09,25,08,41,7.00
2013,09,25,08,42,7.10
2013,09,25,08,43,7.10
2013,09,25,08,44,7.10
2013,09,25,08,45,7.10
2013,09,25,08,46,7.10
2013,09,25,08,47,7.10
2013,09,25,08,48,7.10
2013,09,25,08,49,7.10
2013,09,25,08,50,7.10
2013,09,25,08,51,7.10
2013,09,25,08,52,7.10
2013,09,25,08,53,7.10
2013,09,25,08,54,7.10
2013,09,25,08,55,7.10
2013,09,25,08,56,7.10
2013,09,25,08,57,7.20
2013,09,25,08,58,7.20
2013,09,25,08,59,7.20
2013,09,25,09,00,7.20
2013,09,25,09,01,7.20
2013,09,25,09,02,7.20
2013,09,25,09,03,7.20
2013,09,25,09,04,7.30
2013,09,25,09,05,7.30
2013,09,25,09,06,7.30
2013,09,25,09,07,7.30
2013,09,25,09,08,7.30
2013,09,25,09,09,7.30
2013,09,25,09,10,7.30
2013,09,25,09,11,7.30
2013,09,25,09,12,7.30
2013,09,25,09,13,7.30
2013,09,25,09,14,7.30
2013,09,25,09,15,7.40
2013,09,25,09,16,7.40
2013,09,25,09,17,7.40
2013,09,25,09,18,7.40
2013,09,25,09,19,7.50
2013,09,25,09,20,7.50
2013,09,25,09,21,7.60
2013,09,25,09,22,7.60
2013,09,25,09,23,7.60
2013,09,25,09,24,7.60
2013,09,25,09,25,7.60
2013,09,25,09,26,7.60
2013,09,25,09,27,7.70
2013,09,25,09,28,7.70
2013,09,25,09,29,7.70
2013,09,25,09,30,7.70
2013,09,25,09,31,7.70
2013,09,25,09,32,7.70
2013,09,25,09,33,7.70
2013,09,25,09,34,7.80
2013,09,25,09,35,7.80
2013,09,25,09,36,7.80
2013,09,25,09,37,7.80
2013,09,25,09,38,7.80
2013,09,25,09,39,7.80
2013,09,25,09,40,7.80
2013,09,25,09,41,7.80
2013,09,25,09,42,7.80
2013,09,25,09,43,7.90
2013,09,25,09,44,7.90
2013,09,25,09,45,7.90
2013,09,25,09,46,8.00
2013,09,25,09,47,8.00
2013,09,25,09,48,8.10
2013,09,25,09,49,8.10
2013,09,25,09,50,8.10
2013,09,25,09,51,8.10
2013,09,25,09,52,8.10
2013,09,25,09,53,8.10
2013,09,25,09,54,8.10
2013,09,25,09,55,8.10
2013,09,25,09,56,8.10
2013,09,25,09,57,8.10
2013,09,25,09,58,8.10
2013,09,25,09,59,8.10
2013,09,25,10,00,8.20
2013,09,25,10,01,8.20
2013,09,25,10,02,8.20
2013,09,25,10,03,8.30
2013,09,25,10,04,8.30
2013,09,25,10,05,8.30
2013,09,25,10,06,8.30
2013,09,25,10,07,8.40
2013,09,25,10,08,8.40
2013,09,25,10,09,8.40
2013,09,25,10,10,8.40
2013,09,25,10,11,8.40
2013,09,25,10,12,8.40
2013,09,25,10,13,8.40
2013,09,25,10,14,8.40
2013,09,25,10,15,8.40
2013,09,25,10,16,8.40
2013,09,25,10,17,8.40
2013,09,25,10,18,8.40
2013,09,25,10,19,8.40
2013,09,25,10,20,8.50
2013,09,25,10,21,8.50
2013,09,25,10,22,8.60
2013,09,25,10,23,8.60
2013,09,25,10,24,8.60
2013,09,25,10,25,8.70
2013,09,25,10,26,8.70
2013,09,25,10,27,8.70
2013,09,25,10,28,8.70
2013,09,25,10,29,8.70
2013,09,25,10,30,8.90
2013,09,25,10,31,9.00
2013,09,25,10,32,9.10
2013,09,25,10,33,9.10
2013,09,25,10,34,9.10
2013,09,25,10,35,9.10
2013,09,25,10,36,9.00
2013,09,25,10,37,9.00
2013,09,25,10,38,9.10
2013,09,25,10,39,9.10
2013,09,25,10,40,9.20
2013,09,25,10,41,9.20
2013,09,25,10,42,9.20
2013,09,25,10,43,9.30
2013,09,25,10,44,9.40
2013,09,25,10,45,9.40
2013,09,25,10,46,9.50
2013,09,25,10,47,9.50
2013,09,25,10,48,9.50
2013,09,25,10,49,9.60
2013,09,25,10,50,9.60
2013,09,25,10,51,9.70
2013,09,25,10,52,9.80
2013,09,25,10,53,9.80
2013,09,25,10,54,9.80
2013,09,25,10,55,9.90
2013,09,25,10,56,10.00
2013,09,25,10,57,10.00
2013,09,25,10,58,10.10
2013,09,25,10,59,10.10
2013,09,25,11,00,10.20
2013,09,25,11,01,10.20
2013,09,25,11,02,10.20
2013,09,25,11,03,10.20
2013,09,25,11,04,10.30
2013,09,25,11,05,10.30
2013,09,25,11,06,10.30
2013,09,25,11,07,10.40
2013,09,25,11,08,10.50
2013,09,25,11,09,10.60
2013,09,25,11,10,10.60
2013,09,25,11,11,10.70
2013,09,25,11,12,10.70
2013,09,25,11,13,10.70
2013,09,25,11,14,10.80
2013,09,25,11,15,10.80
2013,09,25,11,16,10.80
2013,09,25,11,17,10.80
2013,09,25,11,18,10.90
2013,09,25,11,19,10.90
2013,09,25,11,20,11.00
2013,09,25,11,21,11.00
2013,09,25,11,22,11.10
2013,09,25,11,23,11.10
2013,09,25,11,24,11.20
2013,09,25,11,25,11.30
2013,09,25,11,26,11.30
2013,09,25,11,27,11.40
2013,09,25,11,28,11.40
2013,09,25,11,29,11.40
2013,09,25,11,30,11.40
2013,09,25,11,31,11.40
2013,09,25,11,32,11.40
2013,09,25,11,33,11.50
2013,09,25,11,34,11.50
2013,09,25,11,35,11.50
2013,09,25,11,36,11.60
2013,09,25,11,37,11.70
2013,09,25,11,38,11.70
2013,09,25,11,39,11.80
2013,09,25,11,40,11.80
2013,09,25,11,41,11.80
2013,09,25,11,42,11.90
2013,09,25,11,43,11.90
2013,09,25,11,44,12.00
2013,09,25,11,45,12.10
2013,09,25,11,46,12.20
2013,09,25,11,47,12.30
2013,09,25,11,48,12.30
2013,09,25,11,49,12.40
2013,09,25,11,50,12.50
2013,09,25,11,51,12.60
2013,09,25,11,52,12.70
2013,09,25,11,53,12.70
2013,09,25,11,54,12.80
2013,09,25,11,55,12.90
2013,09,25,11,56,13.00
2013,09,25,11,57,13.00
2013,09,25,11,58,13.10
2013,09,25,11,59,13.10
2013,09,25,12,00,13.20
2013,09,25,12,01,13.30
2013,09,25,12,02,13.30
2013,09,25,12,03,13.30
2013,09,25,12,04,13.20
2013,09,25,12,05,13.20
2013,09,25,12,06,13.20
2013,09,25,12,07,13.30
2013,09,25,12,08,13.30
2013,09,25,12,09,13.30
2013,09,25,12,10,13.40
2013,09,25,12,11,13.40
2013,09,25,12,12,13.40
2013,09,25,12,13,13.50
2013,09,25,12,14,13.50
2013,09,25,12,15,13.50
2013,09,25,12,16,13.60
2013,09,25,12,17,13.60
2013,09,25,12,18,13.70
2013,09,25,12,19,13.80
2013,09,25,12,20,13.80
2013,09,25,12,21,13.80
2013,09,25,12,22,13.90
2013,09,25,12,23,13.90
2013,09,25,12,24,13.90
2013,09,25,12,25,14.00
2013,09,25,12,26,14.00
2013,09,25,12,27,14.10
2013,09,25,12,28,14.10
2013,09,25,12,29,14.20
2013,09,25,12,30,14.20
2013,09,25,12,31,14.30
2013,09,25,12,32,14.30
2013,09,25,12,33,14.30
2013,09,25,12,34,14.40
2013,09,25,12,35,14.50
2013,09,25,12,36,14.50
2013,09,25,12,37,14.50
2013,09,25,12,38,14.60
2013,09,25,12,39,14.60
2013,09,25,12,40,14.60
2013,09,25,12,41,14.60
2013,09,25,12,42,14.60
2013,09,25,12,43,14.70
2013,09,25,12,44,14.70
2013,09,25,12,45,14.70
2013,09,25,12,46,14.60
2013,09,25,12,47,14.60
2013,09,25,12,48,14.60
2013,09,25,12,49,14.60
2013,09,25,12,50,14.60
2013,09,25,12,51,14.60
2013,09,25,12,52,14.70
2013,09,25,12,53,14.70
2013,09,25,12,54,14.80
2013,09,25,12,55,14.90
2013,09,25,12,56,15.00
2013,09,25,12,57,15.00
2013,09,25,12,58,15.10
2013,09,25,12,59,15.10
2013,09,25,13,00,15.10
2013,09,25,13,01,15.10
2013,09,25,13,02,15.10
2013,09,25,13,03,15.10
2013,09,25,13,04,15.00
2013,09,25,13,05,15.00
2013,09,25,13,06,15.00
2013,09,25,13,07,15.00
2013,09,25,13,08,15.10
2013,09,25,13,09,15.10
2013,09,25,13,10,15.20
2013,09,25,13,11,15.30
2013,09,25,13,12,15.30
2013,09,25,13,13,15.30
2013,09,25,13,14,15.30
2013,09,25,13,15,15.30
2013,09,25,13,16,15.40
2013,09,25,13,17,15.40
2013,09,25,13,18,15.40
2013,09,25,13,19,15.40
2013,09,25,13,20,15.40
2013,09,25,13,21,15.40
2013,09,25,13,22,15.40
2013,09,25,13,23,15.40
2013,09,25,13,24,15.50
2013,09,25,13,25,15.50
2013,09,25,13,26,15.50
2013,09,25,13,27,15.60
2013,09,25,13,28,15.60
2013,09,25,13,29,15.70
2013,09,25,13,30,15.70
2013,09,25,13,31,15.70
2013,09,25,13,32,15.80
2013,09,25,13,33,15.80
2013,09,25,13,34,15.90
2013,09,25,13,35,15.90
2013,09,25,13,36,15.90
2013,09,25,13,37,16.00
2013,09,25,13,38,16.00
2013,09,25,13,39,16.10
2013,09,25,13,40,16.10
2013,09,25,13,41,16.20
2013,09,25,13,42,16.20
2013,09,25,13,43,16.20
2013,09,25,13,44,16.20
2013,09,25,13,45,16.20
2013,09,25,13,46,16.30
2013,09,25,13,47,16.30
2013,09,25,13,48,16.40
2013,09,25,13,49,16.40
2013,09,25,13,50,16.50
2013,09,25,13,51,16.60
2013,09,25,13,52,16.60
2013,09,25,13,53,16.60
2013,09,25,13,54,16.60
2013,09,25,13,55,16.60
2013,09,25,13,56,16.60
2013,09,25,13,57,16.60
2013,09,25,13,58,16.60
2013,09,25,13,59,16.50
2013,09,25,14,00,16.50
2013,09,25,14,01,16.40
2013,09,25,14,02,16.50
2013,09,25,14,03,16.50
2013,09,25,14,04,16.60
2013,09,25,14,05,16.70
2013,09,25,14,06,16.80
2013,09,25,14,07,16.80
2013,09,25,14,08,16.90
2013,09,25,14,09,16.90
2013,09,25,14,10,16.90
2013,09,25,14,11,16.90
2013,09,25,14,12,16.90
2013,09,25,14,13,16.90
2013,09,25,14,14,16.90
2013,09,25,14,15,17.00
2013,09,25,14,16,17.00
2013,09,25,14,17,17.10
2013,09,25,14,18,17.10
2013,09,25,14,19,17.20
2013,09,25,14,20,17.30
2013,09,25,14,21,17.30
2013,09,25,14,22,17.40
2013,09,25,14,23,17.40
2013,09,25,14,24,17.40
2013,09,25,14,25,17.50
2013,09,25,14,26,17.50
2013,09,25,14,27,17.50
2013,09,25,14,28,17.60
2013,09,25,14,29,17.70
2013,09,25,14,30,17.70
2013,09,25,14,31,17.80
2013,09,25,14,32,17.80
2013,09,25,14,33,17.90
2013,09,25,14,34,18.00
2013,09,25,14,35,18.00
2013,09,25,14,36,18.10
2013,09,25,14,37,18.10
2013,09,25,14,38,18.20
2013,09,25,14,39,18.20
2013,09,25,14,40,18.20
2013,09,25,14,41,18.20
2013,09,25,14,42,18.20
2013,09,25,14,43,18.20
2013,09,25,14,44,18.20
2013,09,25,14,45,18.20
2013,09,25,14,46,18.10
2013,09,25,14,47,18.10
2013,09,25,14,48,18.10
2013,09,25,14,49,18.20
2013,09,25,14,50,18.20
2013,09,25,14,51,18.30
2013,09,25,14,52,18.30
2013,09,25,14,53,18.40
2013,09,25,14,54,18.50
2013,09,25,14,55,18.50
2013,09,25,14,56,18.60
2013,09,25,14,57,18.60
2013,09,25,14,58,18.60
2013,09,25,14,59,18.50
2013,09,25,15,00,18.50
2013,09,25,15,01,18.50
2013,09,25,15,02,18.40
2013,09,25,15,03,18.40
2013,09,25,15,04,18.50
2013,09,25,15,05,18.50
2013,09,25,15,06,18.60
2013,09,25,15,07,18.70
2013,09,25,15,08,18.70
2013,09,25,15,09,18.80
2013,09,25,15,10,18.80
2013,09,25,15,11,18.80
2013,09,25,15,12,18.80
2013,09,25,15,13,18.80
2013,09,25,15,14,18.80
2013,09,25,15,15,18.80
2013,09,25,15,16,18.90
2013,09,25,15,17,18.90
2013,09,25,15,18,18.80
2013,09,25,15,19,18.80
2013,09,25,15,20,18.80
2013,09,25,15,21,18.80
2013,09,25,15,22,18.80
2013,09,25,15,23,18.80
2013,09,25,15,24,18.80
2013,09,25,15,25,18.90
2013,09,25,15,26,18.90
2013,09,25,15,27,19.00
2013,09,25,15,28,19.10
2013,09,25,15,29,19.20
2013,09,25,15,30,19.30
2013,09,25,15,31,19.30
2013,09,25,15,32,19.40
2013,09,25,15,33,19.40
2013,09,25,15,34,19.50
2013,09,25,15,35,19.50
2013,09,25,15,36,19.60
2013,09,25,15,37,19.60
2013,09,25,15,38,19.60
2013,09,25,15,39,19.60
2013,09,25,15,40,19.60
2013,09,25,15,41,19.60
2013,09,25,15,42,19.50
2013,09,25,15,43,19.40
2013,09,25,15,44,19.30
2013,09,25,15,45,19.30
2013,09,25,15,46,19.30
2013,09,25,15,47,19.20
2013,09,25,15,48,19.20
2013,09,25,15,49,19.30
2013,09,25,15,50,19.30
2013,09,25,15,51,19.40
2013,09,25,15,52,19.40
2013,09,25,15,53,19.50
2013,09,25,15,54,19.60
2013,09,25,15,55,19.60
2013,09,25,15,56,19.60
2013,09,25,15,57,19.50
2013,09,25,15,58,19.60
2013,09,25,15,59,19.60
2013,09,25,16,00,19.60
2013,09,25,16,01,19.70
2013,09,25,16,02,19.70
2013,09,25,16,03,19.80
2013,09,25,16,04,19.80
2013,09,25,16,05,19.90
2013,09,25,16,06,20.00
2013,09,25,16,07,20.10
2013,09,25,16,08,20.10
2013,09,25,16,09,20.20
2013,09,25,16,10,20.20
2013,09,25,16,11,20.20
2013,09,25,16,12,20.20
2013,09,25,16,13,20.20
2013,09,25,16,14,20.20
2013,09,25,16,15,20.30
2013,09,25,16,16,20.30
2013,09,25,16,17,20.30
2013,09,25,16,18,20.30
2013,09,25,16,19,20.30
2013,09,25,16,20,20.20
2013,09,25,16,21,20.20
2013,09,25,16,22,20.10
2013,09,25,16,23,20.10
2013,09,25,16,24,20.10
2013,09,25,16,25,20.10
2013,09,25,16,26,20.10
2013,09,25,16,27,20.10
2013,09,25,16,28,20.20
2013,09,25,16,29,20.20
2013,09,25,16,30,20.30
2013,09,25,16,31,20.30
2013,09,25,16,32,20.20
2013,09,25,16,33,20.20
2013,09,25,16,34,20.20
2013,09,25,16,35,20.20
2013,09,25,16,36,20.20
2013,09,25,16,37,20.30
2013,09,25,16,38,20.30
2013,09,25,16,39,20.40
2013,09,25,16,40,20.50
2013,09,25,16,41,20.50
2013,09,25,16,42,20.60
2013,09,25,16,43,20.60
2013,09,25,16,44,20.60
2013,09,25,16,45,20.60
2013,09,25,16,46,20.60
2013,09,25,16,47,20.70
2013,09,25,16,48,20.70
2013,09,25,16,49,20.80
2013,09,25,16,50,20.80
2013,09,25,16,51,20.80
2013,09,25,16,52,20.70
2013,09,25,16,53,20.70
2013,09,25,16,54,20.60
2013,09,25,16,55,20.60
2013,09,25,16,56,20.50
2013,09,25,16,57,20.50
2013,09,25,16,58,20.40
2013,09,25,16,59,20.40
2013,09,25,17,00,20.40
2013,09,25,17,01,20.40
2013,09,25,17,02,20.40
2013,09,25,17,03,20.40
2013,09,25,17,04,20.50
2013,09,25,17,05,20.50
2013,09,25,17,06,20.60
2013,09,25,17,07,20.60
2013,09,25,17,08,20.60
2013,09,25,17,09,20.60
2013,09,25,17,10,20.70
2013,09,25,17,11,20.70
2013,09,25,17,12,20.70
2013,09,25,17,13,20.70
2013,09,25,17,14,20.70
2013,09,25,17,15,20.70
2013,09,25,17,16,20.60
2013,09,25,17,17,20.40
2013,09,25,17,18,20.30
2013,09,25,17,19,20.10
2013,09,25,17,20,20.00
2013,09,25,17,21,19.80
2013,09,25,17,22,19.70
2013,09,25,17,23,19.70
2013,09,25,17,24,19.60
2013,09,25,17,25,19.60
2013,09,25,17,26,19.60
2013,09,25,17,27,19.60
2013,09,25,17,28,19.60
2013,09,25,17,29,19.60
2013,09,25,17,30,19.60
2013,09,25,17,31,19.60
2013,09,25,17,32,19.60
2013,09,25,17,33,19.50
2013,09,25,17,34,19.50
2013,09,25,17,35,19.50
2013,09,25,17,36,19.40
2013,09,25,17,37,19.40
2013,09,25,17,38,19.40
2013,09,25,17,39,19.40
2013,09,25,17,40,19.30
2013,09,25,17,41,19.30
2013,09,25,17,42,19.30
2013,09,25,17,43,19.20
2013,09,25,17,44,19.10
2013,09,25,17,45,19.10
2013,09,25,17,46,19.10
2013,09,25,17,47,19.00